Location: Bandys
(35.4750°N, 81.0830°W)
Time: 03:17:21
(UTC-04:00)

Daily predictions for brighter satellites

Satellite Brightness Start Highest point End
(mag) Time Altitude Azimuth Time Altitude Azimuth Time Altitude Azimuth
CZ-3 R/B 4.1 03:42:22 10° W 04:37:52 67° SSW 04:49:22 10° ESE
USA 267 3.5 04:36:19 10° ESE 04:42:04 63° E 04:42:04 63° E
CZ-4C R/B 3.7 04:40:23 28° N 04:44:02 47° NE 04:51:41 10° SE
Cosmos 1943 Rocket 4.0 04:47:54 23° NNE 04:47:54 23° NNE 04:49:53 10° NNE
ADEOS II 3.7 04:50:12 10° NNE 04:52:28 26° NNE 04:52:28 26° NNE
Okean O Rocket 2.9 05:04:16 10° NNE 05:07:32 38° ENE 05:07:32 38° ENE
Cosmos 1758 Rocket 4.3 05:18:13 52° ENE 05:18:13 52° ENE 05:22:10 10° NNE
Cosmos 2154 Rocket 4.4 05:11:56 10° N 05:18:13 62° E 05:24:26 10° SSE
Cosmos 44 Rocket 3.5 05:20:56 67° E 05:20:56 67° E 05:25:37 10° SE
Cosmos 2369 Rocket 4.2 05:28:59 14° NNW 05:28:59 14° NNW 05:30:05 10° N
Meteor 2-19 Rocket 4.3 05:26:02 10° N 05:32:13 78° W 05:38:21 10° S
Cosmos 1610 Rocket 4.3 05:33:35 10° NNW 05:39:42 68° W 05:45:45 10° S
Meteor 1-31 Rocket 3.5 05:39:02 10° NNE 05:42:45 52° E 05:46:27 10° S
RUBIN 8/PSLV 4.3 05:39:44 10° N 05:44:03 80° WNW 05:44:10 79° WSW
Milstar 3 3.3 05:43:13 36° SW 05:45:16 46° S 05:52:39 10° ESE
Cosmos 1707 3.8 05:51:03 32° NNW 05:51:03 32° NNW 05:53:20 10° N
Cosmos 1833 4.1 05:50:59 35° NW 05:53:09 56° WSW 05:58:36 10° S
Cosmos 2219 4.2 05:50:54 10° N 05:56:21 47° ENE 06:01:46 10° SE
Cosmos 962 Rocket 4.4 05:50:23 10° N 05:56:32 90° E 06:02:39 10° S
Meteor 2-5 Rocket 3.8 05:52:44 10° S 05:58:40 89° E 06:04:33 10° N
APEX 3.3 05:57:23 32° NNW 05:59:09 88° WSW 06:04:01 10° SSE
Cosmos 1378 4.4 06:01:44 27° NNW 06:01:44 27° NNW 06:03:43 10° N
PAYLOAD B 4.4 06:02:02 10° N 06:07:18 48° WNW 06:12:34 10° SW
GPS 2-04 Rocket1 2.7 06:07:14 49° WSW 06:07:55 59° SSW 06:11:33 10° ESE
Cosmos 2181 Rocket 3.9 06:01:49 10° S 06:08:04 76° W 06:14:17 10° N
Cosmos 2341 Rocket 3.9 06:02:05 10° N 06:08:28 75° W 06:14:49 10° S
Cosmos 1953 Rocket 4.0 06:09:03 37° WNW 06:09:03 37° WNW 06:12:56 10° N
USA 81 4.1 06:05:32 10° S 06:10:48 84° E 06:16:06 10° N
Cosmos 1656 Rocket 4.3 06:09:34 31° W 06:10:58 35° WNW 06:16:08 10° N
SJ 16-02 1.3 06:07:36 10° SSW 06:12:00 85° ESE 06:16:25 10° NNE
NOSS 3-1 (C) 3.5 06:10:27 26° WSW 06:13:31 51° NW 06:19:39 10° NNE
OAO 2 Rocket 3.2 06:12:44 32° W 06:15:04 77° S 06:20:01 10° ESE
NOSS 3-1 (A) 3.3 06:14:02 14° SW 06:18:59 66° NW 06:25:16 10° NNE
Cosmos 1809 Rocket 4.3 06:13:05 10° N 06:19:10 73° W 06:25:15 10° S
Meteor 1-16 Rocket 4.2 06:15:45 10° NNW 06:21:25 72° W 06:27:14 10° S
CZ-4B R/B 4.3 06:21:04 10° N 06:25:21 47° WNW 06:29:39 10° SSW
USA 267 4.1 06:20:33 10° S 06:26:01 28° SW 06:29:27 18° W
Landsat 4 3.7 06:24:02 10° S 06:27:44 54° W 06:31:27 10° NNW
Cosmos 1356 Rocket 3.9 06:24:12 10° SSW 06:28:09 38° WNW 06:32:11 10° N
Cosmos 1943 Rocket 4.1 06:29:28 10° NW 06:29:28 10° NW 06:29:53 10° NW
CZ-4B R/B 3.8 06:25:36 10° N 06:30:29 34° WNW 06:35:25 10° SW
CZ-4C R/B 3.5 06:25:48 10° NW 06:32:38 38° WSW 06:39:54 10° S
ADEOS II 4.0 06:32:34 10° NW 06:33:24 11° NW 06:33:24 11° NW
Tiangong 2 1.1 06:32:51 23° WNW 06:34:43 84° NNE 06:37:55 10° ESE
Cosmos 1356 3.3 06:31:36 10° SSW 06:35:03 66° W 06:38:31 10° N
USA 116 3.6 06:32:51 10° S 06:36:11 53° W 06:39:56 10° NNW
Cosmos 1269 Rocket 4.2 06:31:38 10° NNW 06:36:57 78° ENE 06:42:14 10° SSE
Meteor 1-28 Rocket 3.3 06:36:33 10° S 06:40:16 55° W 06:44:01 10° NNW
Meteor 2-21 Rocket 4.4 06:36:28 10° NNW 06:42:26 61° W 06:48:24 10° S
Okean O Rocket 3.2 06:42:03 10° NNW 06:44:27 15° WNW 06:44:59 14° WNW
IDEFIX/ARIANE 42P 3.0 06:42:23 10° NNE 06:47:38 70° ESE 06:52:48 10° S
Cosmos 372 Rocket 4.4 06:44:18 10° SW 06:49:08 39° WNW 06:54:02 10° N
CZ-2C R/B 4.3 06:44:53 10° SSW 06:49:16 36° W 06:53:39 10° NNW
Shenzhou-11 Module 3.3 06:54:22 13° W 06:56:33 25° SW 06:59:08 10° SSE
Cosmos 2278 3.9 06:51:24 10° SSW 06:57:01 77° ESE 07:02:41 10° NNE
Okean-O 3.0 06:54:08 10° N 06:58:20 43° WNW 07:02:31 10° SW
Cosmos 1125 Rocket 4.4 06:54:51 10° SW 06:59:21 29° WNW 07:03:54 10° N
Cosmos-2242 4.2 06:56:43 10° NW 06:59:59 21° W 07:03:16 10° SW
PAYLOAD A 3.8 06:55:57 10° N 07:00:41 77° WNW 07:05:31 10° SSW
Cosmos 2366 rocket 4.0 06:56:20 10° NNW 07:02:21 58° W 07:08:22 10° S
Meteor 1-24 Rocket 4.3 06:57:44 10° SW 07:03:20 40° WNW 07:08:55 10° N
NOAA 6 4.3 06:59:03 10° N 07:03:57 45° WNW 07:08:49 10° SW
